This is the latest recevied weather packets stored in our database for station/object N3WGC-14. If no packets are shown the sender has not sent any weather packets the latest 10 day(s).
| Time | Temp. | Humidity | Pressure | Rain* | Wind** | Luminosity | Snow |
|---|---|---|---|---|---|---|---|
| 1787678591 | 25° C | 67% | 1017.4 hPa | 0 mm | - | - | - |
| 1787678291 | 25.56° C | 66% | 1017.5 hPa | 0 mm | - | - | - |
| 1787677990 | 25.56° C | 68% | 1017.5 hPa | 0 mm | - | - | - |
| 1787677690 | 25° C | 67% | 1017.5 hPa | 0 mm | - | - | - |
| 1787677390 | 25° C | 71% | 1017.7 hPa | 0 mm | - | - | - |
| 1787677090 | 24.44° C | 69% | 1017.8 hPa | 0 mm | - | - | - |
| 1787676790 | 25° C | 71% | 1017.7 hPa | 0 mm | - | - | - |
| 1787676490 | 24.44° C | 71% | 1017.8 hPa | 0 mm | - | - | - |
| 1787676189 | 24.44° C | 69% | 1017.8 hPa | 0 mm | - | - | - |
| 1787675889 | 24.44° C | 70% | 1017.7 hPa | 0 mm | - | - | - |
| 1787675589 | 24.44° C | 69% | 1017.8 hPa | 0 mm | - | - | - |
| 1787675289 | 24.44° C | 70% | 1017.9 hPa | 0 mm | - | - | - |
| 1787674989 | 24.44° C | 74% | 1017.9 hPa | 0 mm | - | - | - |
| 1787674689 | 24.44° C | 73% | 1017.9 hPa | 0 mm | - | - | - |
| 1787674389 | 24.44° C | 74% | 1018.1 hPa | 0 mm | - | - | - |
| 1787674088 | 23.89° C | 73% | 1018.3 hPa | 0 mm | - | - | - |
| 1787673788 | 23.89° C | 69% | 1018.5 hPa | 0 mm | - | - | - |
| 1787673488 | 24.44° C | 73% | 1018.5 hPa | 0 mm | - | - | - |
| 1787673188 | 23.89° C | 74% | 1018.5 hPa | 0 mm | - | - | - |
| 1787672888 | 23.89° C | 75% | 1018.5 hPa | 0 mm | - | - | - |
| 1787672588 | 23.89° C | 74% | 1018.6 hPa | 0 mm | - | - | - |
| 1787672287 | 23.89° C | 73% | 1018.6 hPa | 0 mm | - | - | - |
| 1787671987 | 23.89° C | 75% | 1018.7 hPa | 0 mm | - | - | - |
| 1787671687 | 23.89° C | 77% | 1018.8 hPa | 0 mm | - | - | - |
| 1787671387 | 23.89° C | 74% | 1018.8 hPa | 0 mm | - | - | - |
* Rain latest hour (hover to see other rain measurements)
** Current wind speed in m/s (hover to see current wind gust speed)